Regional Weather Roundup
Issued by NWS Little Rock, AR

Home | Current Version | Previous Version | Graphics & Text | Print | Product List | Glossary On
Versions: 1 2 3 4 5 6 7 8 9 10 11 12 13 14 15 16 17 18 19 20 21 22 23 24 25 26 27 28 29 30 31 32 33 34 35 36 37 38 39 40 41 42 43 44 45 46 47 48 49 50
000
ASUS44 KLZK 282205
RWRLZK

WEATHER ROUNDUP FOR ARKANSAS
NATIONAL WEATHER SERVICE LITTLE ROCK AR
500 PM CDT SAT MAR 28 2015

NOTE: "FAIR" INDICATES FEW OR NO CLOUDS BELOW 12,000 FEET WITH NO
SIGNIFICANT WEATHER AND/OR OBSTRUCTIONS TO VISIBILITY.

ARZ001-003-010-029-282300-
NORTHWEST ARKANSAS

CITY           SKY/WX    TMP DP  RH WIND       PRES   REMARKS
FAYETTEVILLE   SUNNY     59  42  53 S14       30.08S
FORT SMITH     SUNNY     55  41  59 E18       30.10S
HARRISON       SUNNY     49  34  56 E15       30.14F
BENTONVILLE    SUNNY     61  39  44 S6        30.09R
ROGERS         MOSUNNY   59  40  49 E12       30.09S
SILOAM SPGS    SUNNY     63  39  42 CALM      30.08S
HIGHFILL       SUNNY     61  41  47 SE12      30.07S
SPRINGDALE     MOSUNNY   59  41  51 SE8       30.10S
$$

ARZ004-005-016-282300-
NORTH CENTRAL ARKANSAS

CITY           SKY/WX    TMP DP  RH WIND       PRES   REMARKS
BATESVILLE     CLOUDY    37  32  81 SE7       30.27S
FLIPPIN        CLOUDY    39  28  65 E9        30.21S
MTN HOME       CLOUDY    38  30  73 SE13G18   30.21S
$$

ARZ040-041-282300-
WEST CENTRAL ARKANSAS

CITY           SKY/WX    TMP DP  RH WIND       PRES   REMARKS
MENA           SUNNY     68  43  40 SE6       30.08S
MOUNT IDA      SUNNY     59  40  49 E9        30.09S
$$

ARZ009-017-025-026-028-282300-
NORTHEAST ARKANSAS

CITY           SKY/WX    TMP DP  RH WIND       PRES   REMARKS
CORNING          N/A     41  32  70 S7        30.29S
JONESBORO      CLOUDY    40  29  64 E8        30.28S
NEWPORT        CLOUDY    39  33  79 E9        30.29S
BLYTHEVILLE    CLOUDY    43  25  49 CALM      30.28S
$$

ARZ022-023-033-042-044-282300-
CENTRAL ARKANSAS

CITY           SKY/WX    TMP DP  RH WIND       PRES   REMARKS
LITTLE ROCK    MOSUNNY   50  32  50 E13       30.23R
N LITTLE ROCK  MOSUNNY   50  35  58 E10G20    30.23R
JACKSONVILLE   SUNNY     49  30  47 SE10      30.23R
SEARCY         CLOUDY    42  34  73 E8        30.28S
HOT SPRINGS    SUNNY     55  38  52 E15G23    30.16R
RUSSELLVILLE   CLOUDY    52  36  54 E13       30.18S
CLINTON        FAIR      46  32  57 E8        30.24R
$$

ARZ036-282300-
EAST ARKANSAS

CITY           SKY/WX    TMP DP  RH WIND       PRES   REMARKS
WEST MEMPHIS   CLOUDY    41  29  62 SE5       30.27S
$$

ARZ050-053-066-070-073-282300-
SOUTHWEST ARKANSAS

CITY           SKY/WX    TMP DP  RH WIND       PRES   REMARKS
ARKADELPHIA    FAIR      61  45  55 E7        30.15R
CAMDEN         SUNNY     64  39  39 MISG      30.14S
TEXARKANA      SUNNY     70  47  43 E10       30.05S
EL DORADO      SUNNY     67  43  41 E13G20    30.11S
DE QUEEN       SUNNY     68  46  45 E9        30.05S
$$

ARZ056-057-069-282300-
SOUTHEAST ARKANSAS

CITY           SKY/WX    TMP DP  RH WIND       PRES   REMARKS
PINE BLUFF     SUNNY     51  35  54 E13       30.22S
STUTTGART      SUNNY     46  28  49 E12       30.24S
MONTICELLO     SUNNY     54  33  45 E13G21    30.20S

$$




USA.gov is the U.S. government's official web portal to all federal, state and local government web resources and services.